[[{"header":{"parameterUnit":"m.s-1","parameterCategory":1,"la1":30.2991,"la2":30.254,"lo1":-89.0895,"lo2":-89.0444,"dy":0.0017,"dx":0.0017,"nx":28,"ny":28,"refTime":"2023-10-14T21:00:00:Z","depth":0,"parameterNumber":2,"parameterNumberName":"U-component_of_WINDS"},"data":[0,0,0,0,0,0,0,0,0,0,0,0,0,0,0,0,0,0,0,0,0,0,0,0,0,0,0,0,0,0,0,0,0,0,0,0,0,0,0,0,0,0,0,0,0,0,0,0,0,0,0,0,0,0,0,0,0,0,1.4851,1.485,0,1.4792,1.4792,1.4791,1.477,1.4771,1.4771,1.4771,1.471,1.4708,1.4707,0,0,0,0,0,0,0,0,0,0,0,0,0,1.4945,1.4944,1.4851,1.485,1.4849,1.4792,1.4792,1.4791,1.477,1.4771,1.4771,1.4771,1.4711,1.4709,1.4706,0,0,0,0,0,0,0,0,0,0,0,0,0,1.4897,1.4943,1.4851,1.4832,1.483,1.4793,1.4791,1.4791,1.477,1.4771,1.4771,1.4771,1.4712,1.4709,1.4706,1.4682,0,0,1.4698,1.4697,0,0,0,0,0,0,0,0,1.49,1.4894,1.4836,1.4834,1.4831,1.4789,1.4802,1.4754,1.477,1.4793,1.4771,1.4772,1.4736,1.4731,1.472,1.4679,1.4677,1.4697,1.4696,1.4695,1.4694,0,0,0,0,0,0,0,1.4903,1.4896,1.4828,1.4835,1.4832,1.4827,1.4821,1.4793,1.4763,1.4791,1.479,1.4783,1.4735,1.4722,1.4718,1.4676,1.4698,1.4695,1.4693,1.4692,1.4614,1.4614,0,0,0,0,0,0,1.491,1.4899,1.483,1.4826,1.4867,1.4825,1.4818,1.4802,1.4764,1.4758,1.4783,1.4782,1.4727,1.4721,1.4716,1.4685,1.4695,1.4692,1.469,1.4615,1.4614,1.4614,0,0,0,0,0,0,1.4912,1.4904,1.4832,1.4862,1.4852,1.4823,1.4806,1.4801,1.4788,1.4757,1.4752,1.4775,1.4727,1.472,1.4691,1.4683,1.4691,1.4688,1.4615,1.4614,1.4614,1.4624,0,0,0,0,0,0,1.4915,1.4905,1.4895,1.4862,1.4851,1.4808,1.4805,1.4799,1.4784,1.4782,1.4749,1.4744,1.4727,1.4695,1.4688,1.4679,1.4686,1.4616,1.4615,1.4614,1.4625,1.4624,1.4624,0,0,0,0,0,1.4918,1.49,1.4895,1.4887,1.4839,1.4808,1.4801,1.4782,1.4783,1.4773,1.4754,1.4745,1.4685,1.4692,1.4684,1.4675,1.4616,1.4615,1.4614,1.4625,1.4624,1.4624,0,0,0,0,0,0,1.4933,1.4895,1.4889,1.486,1.4837,1.4804,1.4791,1.4782,1.4759,1.4758,1.4736,1.4728,1.4701,1.4685,1.4694,1.465,1.465,1.4648,1.4661,1.466,1.466,1.4664,1.4684,0,0,0,0,0,1.4933,1.4911,1.4879,1.4857,1.4846,1.4821,1.4806,1.4794,1.4769,1.4759,1.4737,1.4714,1.469,1.4674,1.4651,1.4623,1.4615,1.4612,1.4612,1.4612,1.4609,1.4594,1.4592,1.461,1.461,1.461,0,0,1.4932,1.4909,1.4896,1.4859,1.484,1.4818,1.4813,1.4789,1.4772,1.4756,1.4727,1.4711,1.4683,1.4655,1.4641,1.464,1.4603,1.4611,1.4611,1.4608,1.4593,1.4591,1.4589,1.461,1.461,1.461,0,0,1.4919,1.49,1.4879,1.486,1.4831,1.4815,1.481,1.4779,1.4767,1.4739,1.4726,1.4706,1.4665,1.4646,1.4631,1.4613,1.4603,1.4606,1.4603,1.4588,1.4587,1.4585,1.4579,1.4576,1.4604,1.4604,1.4604,0,1.4922,1.4888,1.4869,1.4846,1.483,1.4815,1.4794,1.4777,1.4742,1.4731,1.4731,1.468,1.466,1.4627,1.4623,1.4612,1.4605,1.4608,1.4589,1.4587,1.4585,1.4579,1.4576,1.4604,1.4604,1.4604,1.4604,0,1.4892,1.4869,1.4856,1.4823,1.4805,1.4784,1.4762,1.4746,1.4736,1.472,1.4691,1.4667,1.4639,1.463,1.462,1.4596,1.4597,1.4593,1.4592,1.4584,1.4578,1.4575,1.4605,1.4604,1.4604,1.4604,0,0,1.4885,1.4843,1.4839,1.4824,1.4792,1.4773,1.4752,1.4724,1.4711,1.4688,1.4669,1.4636,1.4632,1.4615,1.4603,1.459,1.4577,1.4588,1.4587,1.4586,1.455,1.4552,1.4549,1.4571,1.4571,1.457,1.4552,0,1.4868,1.4827,1.4811,1.4778,1.4756,1.4742,1.4723,1.4702,1.4687,1.4666,1.4649,1.4626,1.4623,1.4613,1.46,1.4581,1.4569,1.4582,1.4553,1.4552,1.4559,1.4546,1.4548,1.4531,1.4549,1.4549,1.4548,0,1.4841,1.4819,1.4784,1.4755,1.4746,1.4729,1.4702,1.4683,1.4659,1.4649,1.4631,1.4619,1.4595,1.4598,1.4565,1.4575,1.4562,1.4552,1.455,1.4546,1.4549,1.454,1.4525,1.4523,1.4544,1.4544,1.4545,0,1.4839,1.48,1.4774,1.4762,1.4728,1.4716,1.4702,1.4678,1.4663,1.464,1.463,1.4605,1.4591,1.4572,1.4554,1.4558,1.4524,1.4524,1.4514,1.4515,1.4506,1.4507,1.4489,1.45,1.45,1.45,1.45,0,1.4821,1.48,1.4773,1.4757,1.4733,1.4715,1.4692,1.4676,1.4656,1.4636,1.4624,1.4606,1.4584,1.4564,1.455,1.4525,1.4519,1.451,1.4506,1.4511,1.4512,1.4501,1.4501,1.4499,1.45,1.45,1.45,0,1.4813,1.4794,1.4765,1.4736,1.4728,1.4712,1.4687,1.4671,1.4656,1.4633,1.4626,1.4602,1.4578,1.4559,1.4527,1.4517,1.4491,1.4488,1.4499,1.4497,1.4488,1.4489,1.4461,1.4457,1.4472,1.4472,1.4472,0,1.4802,1.4786,1.4755,1.4742,1.4727,1.4705,1.469,1.4672,1.4656,1.4628,1.4616,1.4591,1.457,1.4532,1.4511,1.4487,1.4483,1.4475,1.4479,1.4484,1.4482,1.4482,1.4481,1.4474,1.4474,1.4474,1.4474,0,1.4784,1.4776,1.4754,1.4729,1.4712,1.4691,1.4671,1.466,1.4639,1.4622,1.4597,1.4581,1.4549,1.4524,1.4498,1.4484,1.4475,1.4473,1.4469,1.4472,1.448,1.4475,1.4497,1.4473,1.4473,1.4473,1.4473,1.4473,1.4774,1.4759,1.4735,1.4711,1.4694,1.4676,1.4659,1.4643,1.4622,1.4594,1.4585,1.456,1.4537,1.4501,1.4487,1.4467,1.4466,1.4461,1.4459,1.4458,1.4458,1.4484,1.4462,1.4462,1.4462,1.4462,1.4462,0,1.4754,1.4739,1.4717,1.4689,1.4671,1.4666,1.4643,1.4628,1.4606,1.4585,1.4565,1.4537,1.4513,1.4492,1.4468,1.4456,1.4451,1.445,1.445,1.4447,1.446,1.4466,1.4454,1.4454,1.4454,1.4454,1.4454,1.4454,1.4742,1.4716,1.4705,1.4671,1.4656,1.4631,1.4618,1.4601,1.4585,1.4554,1.4535,1.4522,1.4501,1.4475,1.4454,1.4448,1.4439,1.4439,1.4432,1.4445,1.4446,1.4447,1.4452,1.4437,1.4437,1.442,1.442,1.442]},{"header":{"parameterUnit":"m.s-1","parameterCategory":1,"la1":30.2991,"la2":30.254,"lo1":-89.0895,"lo2":-89.0444,"dy":0.0017,"dx":0.0017,"nx":28,"ny":28,"refTime":"2023-10-14T21:00:00:Z","depth":0,"parameterNumber":3,"parameterNumberName":"V-component_of_WINDS"},"data":[0,0,0,0,0,0,0,0,0,0,0,0,0,0,0,0,0,0,0,0,0,0,0,0,0,0,0,0,0,0,0,0,0,0,0,0,0,0,0,0,0,0,0,0,0,0,0,0,0,0,0,0,0,0,0,0,0,0,-7.6682,-7.6685,0,-7.7025,-7.7029,-7.7033,-7.7018,-7.7013,-7.7008,-7.7003,-7.7347,-7.736,-7.7374,0,0,0,0,0,0,0,0,0,0,0,0,0,-7.6002,-7.6015,-7.6681,-7.6686,-7.669,-7.7025,-7.7029,-7.7034,-7.7018,-7.7013,-7.7007,-7.7001,-7.7342,-7.7358,-7.7375,0,0,0,0,0,0,0,0,0,0,0,0,0,-7.6317,-7.6019,-7.6681,-7.6723,-7.673,-7.7024,-7.703,-7.7035,-7.702,-7.7012,-7.7005,-7.6998,-7.7337,-7.7357,-7.7377,-7.7649,0,0,-7.744,-7.7449,0,0,0,0,0,0,0,0,-7.6299,-7.6341,-7.6712,-7.672,-7.6729,-7.6971,-7.6916,-7.7241,-7.7021,-7.6909,-7.7003,-7.6995,-7.7227,-7.7256,-7.7336,-7.7665,-7.768,-7.7442,-7.7454,-7.7463,-7.7469,0,0,0,0,0,0,0,-7.6277,-7.6327,-7.6817,-7.6718,-7.6728,-7.6721,-7.6758,-7.6977,-7.7105,-7.6919,-7.6918,-7.696,-7.723,-7.7317,-7.7344,-7.7685,-7.7441,-7.7459,-7.7472,-7.748,-7.8252,-7.8259,0,0,0,0,0,0,-7.6247,-7.6309,-7.6806,-7.6827,-7.6492,-7.674,-7.6781,-7.6901,-7.7102,-7.7126,-7.6966,-7.6958,-7.7285,-7.732,-7.7356,-7.7688,-7.7463,-7.7482,-7.7494,-7.8243,-7.8253,-7.8262,0,0,0,0,0,0,-7.6233,-7.6292,-7.6792,-7.6568,-7.6631,-7.6759,-7.6894,-7.6911,-7.6998,-7.7138,-7.7159,-7.7031,-7.7281,-7.7328,-7.7577,-7.77,-7.7491,-7.751,-7.8234,-7.8246,-7.8258,-7.8354,0,0,0,0,0,0,-7.6213,-7.6287,-7.6394,-7.6571,-7.6644,-7.7011,-7.6902,-7.6923,-7.7034,-7.7027,-7.7205,-7.7228,-7.7279,-7.7546,-7.7597,-7.7724,-7.7526,-7.8223,-7.8239,-7.8254,-7.834,-7.8368,-7.8391,0,0,0,0,0,-7.6189,-7.6406,-7.64,-7.646,-7.6781,-7.7018,-7.7059,-7.7116,-7.7044,-7.7152,-7.7241,-7.7222,-7.7677,-7.7572,-7.7629,-7.7764,-7.8216,-7.8235,-7.8253,-7.8329,-7.8362,-7.8391,0,0,0,0,0,0,-7.6238,-7.643,-7.6425,-7.6706,-7.6846,-7.7015,-7.7152,-7.715,-7.7311,-7.7298,-7.7358,-7.7399,-7.7648,-7.773,-7.7609,-7.8037,-7.7937,-7.7968,-7.7975,-7.8008,-7.8033,-7.8009,-7.7543,0,0,0,0,0,-7.6282,-7.6461,-7.6617,-7.685,-7.6921,-7.7024,-7.713,-7.7161,-7.7308,-7.7366,-7.7474,-7.7614,-7.7788,-7.7902,-7.807,-7.835,-7.8388,-7.8471,-7.8496,-7.8517,-7.8543,-7.8696,-7.8735,-7.8323,-7.8323,-7.8322,0,0,-7.6374,-7.65,-7.661,-7.6863,-7.6975,-7.7157,-7.7074,-7.727,-7.7405,-7.7395,-7.7638,-7.7721,-7.7881,-7.8147,-7.8269,-7.8223,-7.8665,-7.854,-7.8556,-7.8572,-7.8719,-7.8758,-7.8793,-7.8335,-7.8333,-7.8331,0,0,-7.6635,-7.6749,-7.6955,-7.7069,-7.7241,-7.7308,-7.7357,-7.7526,-7.7582,-7.7827,-7.7823,-7.7981,-7.8281,-7.8396,-7.8493,-7.8794,-7.8782,-7.8846,-7.8981,-7.9129,-7.9161,-7.9191,-7.9298,-7.9336,-7.8871,-7.8872,-7.8872,0,-7.6727,-7.7004,-7.706,-7.7259,-7.7369,-7.737,-7.7578,-7.7684,-7.7901,-7.7976,-7.7921,-7.8297,-7.8404,-7.8697,-7.877,-7.8848,-7.8905,-7.8828,-7.9153,-7.9182,-7.921,-7.9313,-7.9354,-7.8878,-7.8878,-7.8877,-7.8876,0,-7.7108,-7.7299,-7.7445,-7.7657,-7.7783,-7.7985,-7.8069,-7.819,-7.8209,-7.8281,-7.8528,-7.8657,-7.8852,-7.8922,-7.8942,-7.9217,-7.9183,-7.914,-7.9041,-7.9256,-7.9353,-7.9393,-7.8888,-7.8886,-7.8884,-7.8882,0,0,-7.7413,-7.7653,-7.7705,-7.7801,-7.7989,-7.8136,-7.8335,-7.8528,-7.863,-7.8777,-7.8945,-7.9198,-7.9159,-7.9269,-7.9301,-7.9431,-7.9661,-7.9372,-7.9376,-7.9422,-7.997,-8.0003,-8.0048,-7.9652,-7.966,-7.9666,-7.9957,0,-7.7694,-7.8053,-7.8109,-7.8423,-7.8599,-7.86,-7.8774,-7.8906,-7.8977,-7.9134,-7.9211,-7.939,-7.9324,-7.9391,-7.9519,-7.9606,-7.9772,-7.9585,-7.9808,-7.9815,-7.9771,-8.0099,-8.0136,-8.0404,-7.9995,-8.0002,-8.0007,0,-7.8072,-7.8233,-7.8565,-7.8727,-7.8803,-7.8959,-7.9139,-7.929,-7.9438,-7.948,-7.9602,-7.9618,-7.9822,-7.9712,-7.9992,-7.9864,-7.9957,-8.0013,-8.0024,-8.0049,-7.9926,-8.0134,-8.0491,-8.0532,-8.0067,-8.0063,-8.0058,0,-7.8263,-7.8561,-7.8798,-7.888,-7.9075,-7.9184,-7.927,-7.9411,-7.9522,-7.9677,-7.975,-7.9925,-8.0022,-8.0156,-8.0217,-8.0132,-8.0493,-8.0389,-8.0533,-8.0532,-8.0611,-8.0606,-8.099,-8.0668,-8.0668,-8.0667,-8.0666,0,-7.8573,-7.8776,-7.8887,-7.9033,-7.926,-7.9319,-7.9541,-7.9623,-7.9748,-7.9908,-7.9917,-8.0066,-8.0137,-8.0296,-8.0344,-8.0568,-8.0611,-8.0649,-8.066,-8.0651,-8.0646,-8.0714,-8.0698,-8.0678,-8.0675,-8.0673,-8.0671,0,-7.8825,-7.8908,-7.9167,-7.933,-7.9375,-7.9535,-7.9673,-7.9814,-7.9882,-8.0084,-8.0134,-8.0242,-8.0429,-8.0503,-8.0731,-8.0763,-8.1022,-8.1017,-8.0974,-8.0977,-8.1117,-8.1104,-8.156,-8.1623,-8.1258,-8.1261,-8.1264,0,-7.9019,-7.9176,-7.9356,-7.9465,-7.9555,-7.973,-7.9844,-7.9906,-8.0024,-8.0203,-8.0321,-8.0509,-8.0663,-8.0961,-8.1057,-8.123,-8.1231,-8.1378,-8.1257,-8.1241,-8.1234,-8.1225,-8.1241,-8.1402,-8.1405,-8.1408,-8.1411,0,-7.9355,-7.9387,-7.9553,-7.9733,-7.9869,-8.0012,-8.0152,-8.024,-8.0323,-8.0454,-8.0647,-8.0766,-8.0999,-8.1185,-8.1363,-8.1447,-8.1443,-8.1448,-8.1491,-8.1483,-8.1452,-8.1472,-8.1037,-8.1438,-8.1435,-8.1433,-8.1432,-8.1431,-7.9585,-7.9724,-7.9873,-8.0056,-8.0168,-8.0298,-8.0438,-8.0524,-8.0687,-8.0884,-8.0909,-8.1116,-8.1256,-8.1496,-8.1587,-8.1747,-8.1708,-8.177,-8.1786,-8.1801,-8.1811,-8.1425,-8.1779,-8.1779,-8.1778,-8.1778,-8.1777,0,-7.9922,-8.0017,-8.0185,-8.0381,-8.0525,-8.0509,-8.0662,-8.0782,-8.0965,-8.1098,-8.1249,-8.1469,-8.1648,-8.1757,-8.1936,-8.2043,-8.2046,-8.2088,-8.2082,-8.2101,-8.1835,-8.1781,-8.2083,-8.2083,-8.2083,-8.2083,-8.2083,-8.2083,-8.0115,-8.035,-8.0399,-8.0688,-8.078,-8.0985,-8.1074,-8.1192,-8.1299,-8.1546,-8.1695,-8.1766,-8.1888,-8.2076,-8.2238,-8.2265,-8.2331,-8.2378,-8.2402,-8.2152,-8.212,-8.209,-8.204,-8.2391,-8.2391,-8.2655,-8.2657,-8.2659]}]]